Simultaneous Nadir Overpasses (SNOs) Predictions

Prediction of SNOs between FY3D and AQUA Satellite Orbit:

Table of predicted SNOs for the next 14.0 days since TLE Epoch: 5/27/2023
Index Date (FY3D) Time (FY3D) Lat,Lon (FY3D) SZA (FY3D ) Date (AQUA) Time (AQUA) Lat,Lon (AQUA) SZA (AQUA ) Distance(km) Time Diff (sec)
1 05/27/2023 07:36:46 -78.46,-132.28 122.30 05/27/2023 07:37:17 -78.47,-132.36 122.30 1.85 31
2 05/27/2023 08:27:24 78.17, 36.75 57.31 05/27/2023 08:26:35 78.16, 36.85 57.31 2.48 49
3 05/29/2023 21:22:26 78.66,-159.89 57.57 05/29/2023 21:23:06 78.65,-159.77 57.54 2.81 40
4 05/29/2023 22:12:57 -78.10, 10.77 123.19 05/29/2023 22:12:17 -78.10, 10.71 123.17 1.45 40
5 06/01/2023 11:08:01 -78.67, 173.69 122.78 06/01/2023 11:08:49 -78.67, 173.76 122.81 1.56 48
6 06/01/2023 11:58:34 78.20, -16.13 56.58 06/01/2023 11:58:03 78.20, -16.15 56.59 0.30 31
7 06/04/2023 00:53:35 78.66, 147.40 56.88 06/04/2023 00:54:32 78.66, 147.38 56.87 0.52 57
8 06/04/2023 01:44:11 -78.29, -43.02 123.63 06/04/2023 01:43:47 -78.28, -42.97 123.63 1.22 24
9 06/06/2023 14:39:09 -78.64, 121.18 123.43 06/06/2023 14:40:13 -78.65, 121.07 123.43 2.50 64
10 06/06/2023 15:29:48 78.40, -70.02 56.24 06/06/2023 15:29:32 78.39, -69.94 56.24 1.88 16
11 06/09/2023 04:24:46 78.79, 93.86 56.55 06/09/2023 04:25:57 78.79, 93.90 56.52 1.06 71



Historial Predications of SNOs between FY3D and AQUA
